CW7615 Frigiliana ES current weather conditions

sailwx.info

Wind from 100 at 4 knots gusting 6

Air temperature 19.4° C
Dewpoint 8.1° C

Last reported at 2019-Dec-10 12:04 UTC.
Time now 2019-Dec-10 12:52 UTC

Location: N 36°47' W 003°54'.
View on Google Maps.

See reports from other nearby stations

  
Tides and Currents Weather Stations Pressure Air Temp Water Temp Dewpoint Dewpoint Depression Visibility Wind Speed Wind Dir Waves Ship Positions
date/time (UTC)wind fromknots sea level pressurealtimeterstation pressurevisibilityair tempwater tempwave heightnotes
2019-Dec-10 12:04 100 4 gusting 6 19.4
2019-Dec-10 11:58 115 2 gusting 3 19.4
2019-Dec-10 11:53 114 0 gusting 2 18.9
2019-Dec-10 11:49 114 0 gusting 3 18.9
2019-Dec-10 11:43 113 1 gusting 5 18.3
2019-Dec-10 11:38 110 1 gusting 5 17.8
2019-Dec-10 11:34 104 1 gusting 6 17.8
2019-Dec-10 11:30 121 2 gusting 6 17.8
2019-Dec-10 11:23 124 4 gusting 6 18.3
2019-Dec-10 11:19 118 3 gusting 6 18.3
2019-Dec-10 11:15 116 3 gusting 6 18.3
2019-Dec-10 11:08 115 4 gusting 6 18.3
2019-Dec-10 11:04 101 4 gusting 6 18.9
2019-Dec-10 10:59 110 5 gusting 7 19.4
2019-Dec-10 10:53 133 3 gusting 6 20.0
2019-Dec-10 10:48 102 1 gusting 3 19.4
2019-Dec-10 10:44 111 0 gusting 3 19.4
2019-Dec-10 10:38 122 1 gusting 6 18.9
2019-Dec-10 10:33 122 2 gusting 6 18.9
2019-Dec-10 10:29 115 2 gusting 5 18.9
2019-Dec-10 10:23 123 2 gusting 6 19.4
2019-Dec-10 10:18 103 4 gusting 6 20.0
2019-Dec-10 10:14 114 2 gusting 3 20.0
2019-Dec-10 10:10 069 0 gusting 1 20.0
2019-Dec-10 10:03 069 19.4
2019-Dec-10 09:59 069 0 gusting 2 19.4
2019-Dec-10 09:54 048 0 gusting 2 19.4
2019-Dec-10 09:48 009 19.4
2019-Dec-10 09:44 009 18.9
2019-Dec-10 09:39 009 1 gusting 3 18.3
2019-Dec-10 09:33 018 1 gusting 3 17.8
2019-Dec-10 09:29 018 0 gusting 3 17.8
2019-Dec-10 09:24 005 1 gusting 4 17.2
2019-Dec-10 09:18 346 2 gusting 4 16.7
2019-Dec-10 09:13 355 2 gusting 4 16.7
2019-Dec-10 09:09 346 2 gusting 5 16.1
2019-Dec-10 09:05 348 3 gusting 5 16.1
2019-Dec-10 08:58 360 3 gusting 6 15.6
2019-Dec-10 08:54 005 3 gusting 6 15.6
2019-Dec-10 08:50 294 3 gusting 6 15.0
2019-Dec-10 08:43 360 3 gusting 8 15.0
2019-Dec-10 08:39 355 3 gusting 8 14.4
2019-Dec-10 08:34 355 5 gusting 8 14.4
2019-Dec-10 08:28 333 5 gusting 7 14.4
2019-Dec-10 08:24 339 5 gusting 7 13.9
2019-Dec-10 08:19 344 4 gusting 8 13.9
2019-Dec-10 08:13 338 6 gusting 8 13.3
2019-Dec-10 08:09 333 4 gusting 8 13.3
2019-Dec-10 08:04 329 5 gusting 8 12.8
2019-Dec-10 07:58 330 6 gusting 8 12.2
2019-Dec-10 07:53 345 6 gusting 8 12.2
2019-Dec-10 07:49 338 4 gusting 7 12.2
2019-Dec-10 07:45 324 5 gusting 7 11.7
2019-Dec-10 07:38 336 4 gusting 6 11.7
2019-Dec-10 07:34 345 3 gusting 9 11.7
2019-Dec-10 07:30 345 5 gusting 9 12.2
2019-Dec-10 07:23 340 5 gusting 9 12.2
2019-Dec-10 07:19 308 4 gusting 7 12.2
2019-Dec-10 07:15 339 5 gusting 7 12.2
2019-Dec-10 07:08 329 5 gusting 8 12.2
2019-Dec-10 07:04 341 6 gusting 8 12.2
2019-Dec-10 06:59 344 5 gusting 8 12.2
2019-Dec-10 06:53 336 4 gusting 7 12.2
2019-Dec-10 06:49 345 3 gusting 7 12.2
2019-Dec-10 06:45 323 5 gusting 7 12.2
2019-Dec-10 06:38 343 4 gusting 8 12.2
2019-Dec-10 06:34 005 5 gusting 8 12.2
2019-Dec-10 06:30 360 5 gusting 8 12.2
2019-Dec-10 06:23 339 5 gusting 7 12.2
2019-Dec-10 06:19 333 4 gusting 7 12.2
2019-Dec-10 06:14 355 4 gusting 7 12.2
2019-Dec-10 06:08 343 4 gusting 6 12.2
2019-Dec-10 06:04 345 3 gusting 6 12.2
2019-Dec-10 05:59 341 4 gusting 6 12.2
2019-Dec-10 05:53 342 4 gusting 6 12.2
2019-Dec-10 05:49 330 3 gusting 5 12.2
2019-Dec-10 05:44 005 3 gusting 6 12.2
2019-Dec-10 05:38 342 2 gusting 6 12.2
2019-Dec-10 05:34 355 4 gusting 6 12.2
2019-Dec-10 05:29 349 4 gusting 6 12.2
2019-Dec-10 05:23 328 4 gusting 6 12.2
2019-Dec-10 05:19 319 2 gusting 6 12.2
2019-Dec-10 05:14 329 4 gusting 6 12.8
2019-Dec-10 05:08 348 3 gusting 6 12.8
2019-Dec-10 05:03 355 4 gusting 6 12.8
2019-Dec-10 04:59 338 3 gusting 5 12.8
2019-Dec-10 04:55 355 2 gusting 6 12.8
2019-Dec-10 04:48 005 3 gusting 7 12.8
2019-Dec-10 04:44 315 3 gusting 7 13.3
2019-Dec-10 04:39 355 4 gusting 7 12.8
2019-Dec-10 04:33 311 3 gusting 6 12.8
2019-Dec-10 04:29 326 3 gusting 6 13.3
2019-Dec-10 04:24 342 4 gusting 7 13.3
2019-Dec-10 04:18 355 4 gusting 7 13.3
2019-Dec-10 04:14 333 4 gusting 6 13.3
2019-Dec-10 04:09 331 5 gusting 7 13.3
2019-Dec-10 04:05 340 4 gusting 9 13.3
2019-Dec-10 03:58 347 5 gusting 9 13.3
2019-Dec-10 03:54 319 5 gusting 8 13.9
2019-Dec-10 03:50 346 4 gusting 6 13.9
2019-Dec-10 03:43 326 3 gusting 7 13.9
2019-Dec-10 03:39 326 5 gusting 7 14.4
2019-Dec-10 03:34 327 4 gusting 7 14.4
2019-Dec-10 03:28 336 5 gusting 7 14.4
2019-Dec-10 03:24 325 5 gusting 7 14.4
2019-Dec-10 03:19 306 5 gusting 8 14.4
2019-Dec-10 03:13 355 4 gusting 8 14.4
2019-Dec-10 03:09 355 5 gusting 6 14.4
2019-Dec-10 03:04 349 4 gusting 6 14.4
2019-Dec-10 03:00 346 3 gusting 7 14.4
2019-Dec-10 02:53 346 4 gusting 7 14.4
2019-Dec-10 02:49 333 2 gusting 6 14.4
2019-Dec-10 02:45 299 4 gusting 6 14.4
2019-Dec-10 02:38 349 3 gusting 6 14.4
2019-Dec-10 02:34 338 2 gusting 5 14.4
2019-Dec-10 02:29 355 2 gusting 4 14.4
2019-Dec-10 02:23 331 1 gusting 6 14.4
2019-Dec-10 02:19 331 3 gusting 6 14.4
2019-Dec-10 02:14 344 2 gusting 5 15.0
2019-Dec-10 02:08 355 2 gusting 6 14.4
2019-Dec-10 02:03 346 3 gusting 6 15.0
2019-Dec-10 01:59 346 3 gusting 6 15.0
2019-Dec-10 01:53 333 2 gusting 6 15.0
2019-Dec-10 01:48 343 3 gusting 6 15.0
2019-Dec-10 01:44 355 2 gusting 6 15.0
2019-Dec-10 01:38 317 4 gusting 6 15.0
2019-Dec-10 01:33 333 1 gusting 7 15.0
2019-Dec-10 01:29 311 3 gusting 7 15.0
2019-Dec-10 01:25 338 4 gusting 7 15.0
2019-Dec-10 01:18 327 2 gusting 6 15.0
2019-Dec-10 01:14 341 4 gusting 6 15.0
2019-Dec-10 01:08 005 4 gusting 7 15.0
2019-Dec-10 01:03 342 4 gusting 6 15.0
2019-Dec-10 00:59 319 3 gusting 6 15.0
2019-Dec-10 00:54 333 3 gusting 6 15.6
2019-Dec-10 00:49 349 4 gusting 8 15.6
2019-Dec-10 00:44 350 6 gusting 8 15.6
2019-Dec-10 00:39 350 5 gusting 7 15.6
2019-Dec-10 00:34 355 4 gusting 7 15.6
2019-Dec-10 00:29 331 4 gusting 7 15.6
2019-Dec-10 00:24 005 2 gusting 6 16.1
2019-Dec-10 00:19 355 3 gusting 6 16.1
2019-Dec-10 00:14 344 3 gusting 7 16.1
2019-Dec-10 00:09 355 4 gusting 8 16.1
2019-Dec-10 00:04 360 6 gusting 8 16.1
2019-Dec-09 23:59 360 5 gusting 8 16.1
2019-Dec-09 23:54 338 4 gusting 7 16.1
2019-Dec-09 23:49 360 5 gusting 7 16.1
2019-Dec-09 23:44 333 5 gusting 7 16.1
2019-Dec-09 23:39 355 5 gusting 9 16.1
2019-Dec-09 23:34 346 6 gusting 9 16.1
2019-Dec-09 23:29 014 6 gusting 10 15.6
2019-Dec-09 23:24 355 8 gusting 10 15.6
2019-Dec-09 23:19 355 6 gusting 9 15.6
2019-Dec-09 23:14 350 6 gusting 9 15.6
2019-Dec-09 23:09 355 4 gusting 7 15.6
2019-Dec-09 23:04 339 3 gusting 8 15.6
2019-Dec-09 22:59 345 5 gusting 8 15.6
2019-Dec-09 22:53 333 3 gusting 5 15.6
2019-Dec-09 22:48 355 3 gusting 8 15.6
2019-Dec-09 22:44 355 5 gusting 8 15.6
2019-Dec-09 22:38 346 3 gusting 6 15.6
2019-Dec-09 22:33 355 4 gusting 6 15.6
2019-Dec-09 22:29 335 3 gusting 6 15.6
2019-Dec-09 22:25 344 3 gusting 6 15.6
2019-Dec-09 22:18 347 3 gusting 6 15.6
2019-Dec-09 22:14 295 3 gusting 7 15.6
2019-Dec-09 22:10 360 5 gusting 7 15.6
2019-Dec-09 22:03 338 4 gusting 6 15.6
2019-Dec-09 21:58 327 2 gusting 7 15.6
2019-Dec-09 21:54 327 5 gusting 8 16.1
2019-Dec-09 21:50 005 5 gusting 8 16.1
2019-Dec-09 21:43 005 3 gusting 7 16.1
2019-Dec-09 21:39 314 3 gusting 6 16.1
2019-Dec-09 21:35 334 3 gusting 4 16.1
2019-Dec-09 21:28 317 3 gusting 6 16.1
2019-Dec-09 21:24 319 3 gusting 6 15.6
2019-Dec-09 21:20 347 3 gusting 6 15.6
2019-Dec-09 21:13 338 3 gusting 7 15.6
2019-Dec-09 21:09 336 5 gusting 7 15.6
2019-Dec-09 21:04 344 2 gusting 7 15.6
2019-Dec-09 20:58 342 4 gusting 6 15.6
2019-Dec-09 20:54 327 3 gusting 6 15.6
2019-Dec-09 20:49 329 4 gusting 6 15.6
2019-Dec-09 20:43 327 3 gusting 7 15.6
2019-Dec-09 20:38 324 5 gusting 7 15.6
2019-Dec-09 20:34 340 3 gusting 6 15.6
2019-Dec-09 20:28 337 4 gusting 6 15.6
2019-Dec-09 20:23 350 4 gusting 6 15.6
2019-Dec-09 20:19 351 4 gusting 7 15.6
2019-Dec-09 20:15 333 4 gusting 7 15.6
2019-Dec-09 20:08 323 5 gusting 8 15.6
2019-Dec-09 20:04 327 4 gusting 9 15.6
2019-Dec-09 19:59 340 4 gusting 9 15.6
2019-Dec-09 19:53 011 5 gusting 8 15.0
2019-Dec-09 19:48 346 4 gusting 8 15.0
2019-Dec-09 19:44 324 3 gusting 8 15.0
2019-Dec-09 19:38 333 3 gusting 7 15.0
2019-Dec-09 19:33 348 3 gusting 6 15.0
2019-Dec-09 19:29 329 3 gusting 7 15.0
2019-Dec-09 19:23 330 4 gusting 7 15.0
2019-Dec-09 19:18 344 3 gusting 7 15.0
2019-Dec-09 19:14 343 4 gusting 6 15.0
2019-Dec-09 19:08 340 2 gusting 6 15.0
2019-Dec-09 19:03 350 3 gusting 6 15.0
2019-Dec-09 18:59 331 4 gusting 8 15.0
2019-Dec-09 18:55 301 2 gusting 8 15.0
2019-Dec-09 18:48 320 0 gusting 3 15.6
2019-Dec-09 18:44 320 1 gusting 3 15.6
2019-Dec-09 18:39 351 15.6
2019-Dec-09 18:33 308 1 gusting 5 15.6
2019-Dec-09 18:29 336 2 gusting 5 15.6
2019-Dec-09 18:24 355 0 gusting 4 15.6
2019-Dec-09 18:18 355 2 gusting 3 15.6
2019-Dec-09 18:14 005 1 gusting 3 16.1
2019-Dec-09 18:09 005 16.1
2019-Dec-09 18:05 355 3 gusting 5 16.1
2019-Dec-09 17:58 335 3 gusting 5 16.1
2019-Dec-09 17:54 355 2 gusting 4 16.1
2019-Dec-09 17:49 305 1 gusting 5 16.1
2019-Dec-09 17:43 348 2 gusting 6 16.7
2019-Dec-09 17:37 014 1 gusting 3 16.7
2019-Dec-09 17:33 017 0 gusting 3 16.7
2019-Dec-09 17:30 017 1 gusting 3 16.7
2019-Dec-09 17:24 335 0 gusting 3 17.2
2019-Dec-09 17:19 360 2 gusting 4 17.2
2019-Dec-09 17:13 009 2 gusting 3 17.8
2019-Dec-09 17:09 360 17.8
2019-Dec-09 17:04 360 1 gusting 4 17.8
2019-Dec-09 17:00 011 2 gusting 3 18.3
2019-Dec-09 16:53 355 18.9
2019-Dec-09 16:49 355 18.9
2019-Dec-09 16:45 355 0 gusting 2 19.4
2019-Dec-09 16:38 345 19.4
2019-Dec-09 16:34 136 19.4
2019-Dec-09 16:28 136 19.4
2019-Dec-09 16:23 136 19.4
2019-Dec-09 16:19 136 18.9
2019-Dec-09 16:13 136 19.4
2019-Dec-09 16:08 136 19.4
2019-Dec-09 16:04 136 1 gusting 3 19.4
2019-Dec-09 16:00 136 0 gusting 3 19.4
2019-Dec-09 15:53 139 19.4
2019-Dec-09 15:49 139 0 gusting 2 19.4
2019-Dec-09 15:45 138 1 gusting 2 19.4
2019-Dec-09 15:38 138 0 gusting 2 20.0
2019-Dec-09 15:34 121 0 gusting 2 20.0
2019-Dec-09 15:30 113 0 gusting 1 20.0
2019-Dec-09 15:23 132 1 gusting 2 19.4
2019-Dec-09 15:19 132 0 gusting 2 20.0
2019-Dec-09 15:15 132 1 gusting 2 20.0
2019-Dec-09 15:08 132 0 gusting 5 20.0
2019-Dec-09 15:04 121 1 gusting 5 20.0
2019-Dec-09 14:59 126 1 gusting 3 20.0
2019-Dec-09 14:53 115 0 gusting 5 20.0
2019-Dec-09 14:48 121 0 gusting 6 20.0
2019-Dec-09 14:44 124 2 gusting 6 20.0
2019-Dec-09 14:40 121 2 gusting 6 20.6
2019-Dec-09 14:33 144 2 gusting 6 20.6
2019-Dec-09 14:29 123 2 gusting 6 21.1
2019-Dec-09 14:23 109 1 gusting 5 21.1
2019-Dec-09 14:18 117 2 gusting 5 21.7
2019-Dec-09 14:14 123 2 gusting 5 22.2
2019-Dec-09 14:10 128 0 gusting 3 22.2
2019-Dec-09 14:03 157 1 gusting 3 22.2
2019-Dec-09 13:59 180 0 gusting 2 21.7
2019-Dec-09 13:54 147 0 gusting 1 21.7
2019-Dec-09 13:48 040 0 gusting 1 21.1
2019-Dec-09 13:43 036 20.6
2019-Dec-09 13:39 086 0 gusting 1 20.0
2019-Dec-09 13:35 128 18.9
2019-Dec-09 13:28 128 0 gusting 1 18.3
2019-Dec-09 13:24 129 18.3
2019-Dec-09 13:20 129 18.3
2019-Dec-09 13:13 129 1 gusting 4 18.3
2019-Dec-09 13:09 115 2 gusting 6 18.3
2019-Dec-09 13:04 120 3 gusting 7 18.9
2019-Dec-09 12:58 121 6 gusting 7 19.4
2019-Dec-09 12:54 130 4 gusting 7 20.0
2019-Dec-09 12:49 117 4 gusting 6 20.6
2019-Dec-09 12:43 112 2 gusting 6 21.1
2019-Dec-09 12:39 123 3 gusting 6 21.1
2019-Dec-09 12:34 116 0 gusting 6 21.1
2019-Dec-09 12:30 044 2 gusting 6 21.1
2019-Dec-09 12:23 161 1 gusting 6 21.1
2019-Dec-09 12:19 101 3 gusting 6 21.1
2019-Dec-09 12:15 119 2 gusting 6 21.1
2019-Dec-09 12:08 119 1 gusting 3 20.6
2019-Dec-09 12:04 200 1 gusting 3 20.6
2019-Dec-09 11:59 173 1 gusting 3 20.6
2019-Dec-09 11:53 173 0 gusting 3 20.6
2019-Dec-09 11:49 169 0 gusting 3 20.6
2019-Dec-09 11:44 165 1 gusting 3 20.6
2019-Dec-09 11:38 116 1 gusting 3 20.6
2019-Dec-09 11:33 103 0 gusting 5 20.0
2019-Dec-09 11:29 103 2 gusting 5 20.0
2019-Dec-09 11:23 121 2 gusting 3 20.0
2019-Dec-09 11:19 082 0 gusting 2 19.4
2019-Dec-09 11:14 123 0 gusting 3 19.4
2019-Dec-09 11:08 122 0 gusting 5 18.9
2019-Dec-09 11:03 127 2 gusting 6 18.9
2019-Dec-09 10:59 111 3 gusting 6 18.9
2019-Dec-09 10:55 129 5 gusting 6 19.4
2019-Dec-09 10:48 132 3 gusting 5 19.4
2019-Dec-09 10:44 179 0 gusting 1 19.4
2019-Dec-09 10:39 179 19.4
2019-Dec-09 10:33 188 19.4
2019-Dec-09 10:29 254 0 gusting 2 19.4
2019-Dec-09 10:24 169 0 gusting 2 19.4
2019-Dec-09 10:18 120 0 gusting 2 20.0
2019-Dec-09 10:14 119 1 gusting 3 19.4
2019-Dec-09 10:09 119 2 gusting 6 19.4
2019-Dec-09 10:05 116 2 gusting 7 19.4
2019-Dec-09 09:58 121 4 gusting 7 19.4
2019-Dec-09 09:54 107 0 gusting 6 19.4
2019-Dec-09 09:50 130 3 gusting 6 19.4
2019-Dec-09 09:43 126 2 gusting 5 19.4
2019-Dec-09 09:39 124 2 gusting 3 18.9
2019-Dec-09 09:34 109 18.9
2019-Dec-09 09:28 109 1 gusting 3 18.3
2019-Dec-09 09:23 169 18.3
2019-Dec-09 09:19 142 0 gusting 2 18.3
2019-Dec-09 09:13 127 0 gusting 4 18.3
2019-Dec-09 09:08 127 1 gusting 6 18.3
2019-Dec-09 09:04 126 0 gusting 6 18.3
2019-Dec-09 08:59 127 2 gusting 6 18.3
2019-Dec-09 08:53 118 3 gusting 6 18.3
2019-Dec-09 08:49 188 2 gusting 5 17.8
2019-Dec-09 08:44 124 2 gusting 5 18.3
2019-Dec-09 08:38 126 0 gusting 5 18.3
2019-Dec-09 08:34 120 1 gusting 3 18.3
2019-Dec-09 08:29 122 0 gusting 3 17.8
2019-Dec-09 08:23 130 1 gusting 6 17.8
2019-Dec-09 08:19 116 1 gusting 8 17.8
2019-Dec-09 08:14 085 2 gusting 8 17.8
2019-Dec-09 08:08 041 1 gusting 6 16.7
2019-Dec-09 08:03 252 3 gusting 6 16.7
2019-Dec-09 07:59 281 1 gusting 6 16.1
2019-Dec-09 07:55 257 1 gusting 6 16.1
2019-Dec-09 07:48 269 2 gusting 3 15.6
2019-Dec-09 07:44 258 1 gusting 3 15.6
2019-Dec-09 07:39 273 2 gusting 3 15.6
2019-Dec-09 07:33 257 2 gusting 3 15.6
2019-Dec-09 07:29 275 1 gusting 3 15.6
2019-Dec-09 07:24 355 15.6
2019-Dec-09 07:18 346 0 gusting 1 15.6
2019-Dec-09 07:14 276 16.1
2019-Dec-09 07:10 276 16.1
2019-Dec-09 07:03 278 16.1
2019-Dec-09 06:58 278 1 gusting 3 16.1
2019-Dec-09 06:54 355 1 gusting 3 16.1
2019-Dec-09 06:48 036 16.7
2019-Dec-09 06:43 036 16.7
2019-Dec-09 06:39 036 16.7
2019-Dec-09 06:33 175 0 gusting 3 16.7
2019-Dec-09 06:28 279 2 gusting 4 16.7
2019-Dec-09 06:24 331 0 gusting 4 16.7
2019-Dec-09 06:20 324 1 gusting 3 16.7
2019-Dec-09 06:13 169 16.7
2019-Dec-09 06:09 134 0 gusting 2 17.2
2019-Dec-09 06:04 131 0 gusting 6 17.2
2019-Dec-09 05:58 044 3 gusting 13 17.2
2019-Dec-09 05:54 092 6 gusting 13 17.2
2019-Dec-09 05:49 125 0 gusting 4 17.2
2019-Dec-09 05:43 338 0 gusting 11 17.2
2019-Dec-09 05:39 044 5 gusting 11 17.2
2019-Dec-09 05:34 028 2 gusting 8 17.2
2019-Dec-09 05:28 360 3 gusting 8 17.8
2019-Dec-09 05:23 286 4 gusting 8 17.2
2019-Dec-09 05:19 275 1 gusting 2 17.2
2019-Dec-09 05:13 346 17.2
2019-Dec-09 05:08 355 0 gusting 6 17.8
2019-Dec-09 05:04 279 0 gusting 8 17.8
2019-Dec-09 04:59 213 3 gusting 8 17.8
2019-Dec-09 04:53 334 2 gusting 5 17.8
2019-Dec-09 04:49 257 1 gusting 3 17.8
2019-Dec-09 04:44 330 17.8
2019-Dec-09 04:38 288 2 gusting 6 17.8
2019-Dec-09 04:34 263 0 gusting 3 17.8
2019-Dec-09 04:29 253 1 gusting 3 17.8
2019-Dec-09 04:23 292 0 gusting 7 18.3
2019-Dec-09 04:19 159 5 gusting 7 18.3
2019-Dec-09 04:14 246 2 gusting 6 18.3
2019-Dec-09 04:08 209 4 gusting 11 18.9
2019-Dec-09 04:03 062 5 gusting 14 18.9
2019-Dec-09 03:59 055 8 gusting 19 18.9
2019-Dec-09 03:55 360 6 gusting 19 18.9
2019-Dec-09 03:48 316 6 gusting 22 18.9
2019-Dec-09 03:44 286 10 gusting 22 18.9
2019-Dec-09 03:40 030 8 gusting 16 18.3
2019-Dec-09 03:33 329 7 gusting 16 18.3
2019-Dec-09 03:29 298 7 gusting 16 17.8
2019-Dec-09 03:24 294 4 gusting 15 17.8
2019-Dec-09 03:18 355 8 gusting 15 17.8
2019-Dec-09 03:14 333 8 gusting 15 17.8
2019-Dec-09 03:09 019 6 gusting 13 17.2
2019-Dec-09 03:05 331 6 gusting 12 17.2
2019-Dec-09 02:58 286 3 gusting 6 17.2
2019-Dec-09 02:54 320 2 gusting 6 17.2
2019-Dec-09 02:50 350 3 gusting 6 17.2
2019-Dec-09 02:43 342 3 gusting 9 17.2
2019-Dec-09 02:39 038 3 gusting 8 17.2
2019-Dec-09 02:35 011 3 gusting 9 17.2
2019-Dec-09 02:28 009 4 gusting 12 17.2
2019-Dec-09 02:24 026 6 gusting 23 17.2
2019-Dec-09 02:20 355 7 gusting 23 17.2
2019-Dec-09 02:13 344 7 gusting 19 17.8
2019-Dec-09 02:09 015 11 gusting 23 17.8
2019-Dec-09 02:04 324 9 gusting 23 17.8
2019-Dec-09 01:58 355 11 gusting 22 17.8
2019-Dec-09 01:53 304 8 gusting 15 17.8
2019-Dec-09 01:49 355 5 gusting 16 17.8
2019-Dec-09 01:45 360 9 gusting 18 17.8
2019-Dec-09 01:38 326 6 gusting 17 18.3
2019-Dec-09 01:34 256 8 gusting 17 18.3
2019-Dec-09 01:30 360 4 gusting 15 17.8
2019-Dec-09 01:23 306 7 gusting 16 18.3
2019-Dec-09 01:19 276 6 gusting 16 18.3
2019-Dec-09 01:13 030 5 gusting 16 17.8
2019-Dec-09 01:08 308 10 gusting 16 17.8
2019-Dec-09 01:04 337 6 gusting 15 17.8
2019-Dec-09 01:00 265 6 gusting 18 17.8
2019-Dec-09 00:55 005 11 gusting 18 17.8
2019-Dec-09 00:49 355 6 gusting 18 17.8
2019-Dec-09 00:44 015 6 gusting 18 17.8
2019-Dec-09 00:39 360 6 gusting 13 17.8
2019-Dec-09 00:34 031 7 gusting 12 17.8
2019-Dec-09 00:29 351 6 gusting 13 17.8
2019-Dec-09 00:24 355 9 gusting 13 17.8
2019-Dec-09 00:19 360 6 gusting 11 17.8
2019-Dec-09 00:14 319 5 gusting 8 17.8
2019-Dec-09 00:09 005 4 gusting 8 17.8
2019-Dec-09 00:04 034 1 gusting 11 17.8
2019-Dec-08 23:59 191 2 gusting 11 17.8
2019-Dec-08 23:54 360 1 gusting 9 17.8
2019-Dec-08 23:49 060 0 gusting 8 17.8
2019-Dec-08 23:44 013 2 gusting 9 17.8
2019-Dec-08 23:39 088 1 gusting 9 18.3
2019-Dec-08 23:34 088 1 gusting 7 18.3
2019-Dec-08 23:29 013 3 gusting 7 18.3
2019-Dec-08 23:24 251 2 gusting 9 18.3
2019-Dec-08 23:19 308 3 gusting 9 18.3
2019-Dec-08 23:14 288 2 gusting 9 18.3
2019-Dec-08 23:09 067 2 gusting 9 18.3
2019-Dec-08 23:04 205 1 gusting 10 18.3
2019-Dec-08 22:58 348 3 gusting 10 18.3
2019-Dec-08 22:54 347 5 gusting 9 18.3
2019-Dec-08 22:50 059 1 gusting 9 18.3
2019-Dec-08 22:43 050 6 gusting 13 18.3
2019-Dec-08 22:39 325 5 gusting 13 18.3
2019-Dec-08 22:34 005 6 gusting 14 18.3
2019-Dec-08 22:28 360 7 gusting 14 18.3
2019-Dec-08 22:23 334 9 gusting 14 18.3
2019-Dec-08 22:19 355 6 gusting 14 18.3
2019-Dec-08 22:13 339 3 gusting 10 18.3
2019-Dec-08 22:08 315 5 gusting 10 18.3
2019-Dec-08 22:04 329 5 gusting 10 18.3
2019-Dec-08 22:00 323 3 gusting 10 18.3
2019-Dec-08 21:53 348 3 gusting 9 18.3
2019-Dec-08 21:49 344 5 gusting 9 18.3
2019-Dec-08 21:44 305 5 gusting 13 18.3
2019-Dec-08 21:38 321 6 gusting 13 18.3
2019-Dec-08 21:34 296 8 gusting 13 17.8
2019-Dec-08 21:29 277 2 gusting 6 17.8
2019-Dec-08 21:23 332 3 gusting 6 17.8
2019-Dec-08 21:18 311 0 gusting 5 17.8
2019-Dec-08 21:14 013 0 gusting 3 17.8
2019-Dec-08 21:10 313 1 gusting 4 17.8
2019-Dec-08 21:03 355 2 gusting 5 17.8
2019-Dec-08 20:58 012 3 gusting 5 17.8
2019-Dec-08 20:54 023 1 gusting 8 17.8
2019-Dec-08 20:50 014 4 gusting 8 17.8
2019-Dec-08 20:43 022 3 gusting 5 17.2
2019-Dec-08 20:39 021 2 gusting 6 17.2
2019-Dec-08 20:33 018 4 gusting 8 17.2
2019-Dec-08 20:29 032 5 gusting 8 17.2
2019-Dec-08 20:24 010 3 gusting 9 17.2
2019-Dec-08 20:18 021 4 gusting 9 17.2
2019-Dec-08 20:14 016 1 gusting 4 17.2
2019-Dec-08 20:09 315 2 gusting 3 16.7
2019-Dec-08 20:05 256 0 gusting 3 16.7
2019-Dec-08 19:58 271 1 gusting 2 16.7
2019-Dec-08 19:54 267 0 gusting 1 16.7
2019-Dec-08 19:50 267 16.7
2019-Dec-08 19:43 267 0 gusting 1 16.1
2019-Dec-08 19:39 267 0 gusting 1 16.1
2019-Dec-08 19:35 277 16.1
2019-Dec-08 19:28 278 16.1
2019-Dec-08 19:24 265 1 gusting 5 15.6
2019-Dec-08 19:20 193 1 gusting 5 15.6
2019-Dec-08 19:13 252 2 gusting 5 15.6
2019-Dec-08 19:09 315 2 gusting 5 15.6
2019-Dec-08 19:04 255 1 gusting 3 15.6
2019-Dec-08 18:58 273 0 gusting 2 15.0
2019-Dec-08 18:54 302 0 gusting 2 15.0
2019-Dec-08 18:49 023 0 gusting 2 15.0
2019-Dec-08 18:43 278 0 gusting 2 15.0
2019-Dec-08 18:39 278 0 gusting 3 15.0
2019-Dec-08 18:34 027 1 gusting 3 15.0
2019-Dec-08 18:28 280 0 gusting 2 15.6
2019-Dec-08 18:23 017 1 gusting 4 15.6
2019-Dec-08 18:19 350 0 gusting 4 15.6
2019-Dec-08 18:13 316 0 gusting 7 15.6
2019-Dec-08 18:09 355 4 gusting 7 15.6
2019-Dec-08 18:04 342 1 gusting 4 15.0
2019-Dec-08 17:58 349 2 gusting 5 15.6
2019-Dec-08 17:53 324 1 gusting 5 15.6
2019-Dec-08 17:49 338 2 gusting 5 15.6
2019-Dec-08 17:43 347 2 gusting 6 15.6
2019-Dec-08 17:38 355 4 gusting 6 15.6
2019-Dec-08 17:34 005 0 gusting 4 15.6
2019-Dec-08 17:30 355 2 gusting 4 15.6
2019-Dec-08 17:23 343 1 gusting 6 15.0
2019-Dec-08 17:19 316 1 gusting 6 15.0
2019-Dec-08 17:14 355 2 gusting 4 15.0
2019-Dec-08 17:08 327 1 gusting 3 15.0
2019-Dec-08 17:03 338 0 gusting 2 15.6
2019-Dec-08 16:59 017 0 gusting 2 15.6
2019-Dec-08 16:53 118 15.6
2019-Dec-08 16:48 118 15.6
2019-Dec-08 16:44 118 15.6
2019-Dec-08 16:38 118 16.1
2019-Dec-08 16:34 118 16.1
2019-Dec-08 16:29 118 16.1
2019-Dec-08 16:23 118 16.1
2019-Dec-08 16:18 118 16.1
2019-Dec-08 16:14 118 16.1
2019-Dec-08 16:08 118 16.7
2019-Dec-08 16:03 118 0 gusting 1 16.7
2019-Dec-08 15:59 118 0 gusting 2 16.7
2019-Dec-08 15:54 118 0 gusting 3 16.7
2019-Dec-08 15:48 110 1 gusting 3 16.7
2019-Dec-08 15:44 117 0 gusting 3 17.2
2019-Dec-08 15:40 115 1 gusting 3 17.2
2019-Dec-08 15:33 115 1 gusting 3 17.2
2019-Dec-08 15:29 116 1 gusting 2 17.2
2019-Dec-08 15:24 116 0 gusting 2 16.7
2019-Dec-08 15:18 116 0 gusting 2 16.7
2019-Dec-08 15:14 116 0 gusting 2 16.7
2019-Dec-08 15:09 116 1 gusting 3 16.7
2019-Dec-08 15:05 116 2 gusting 3 16.7
2019-Dec-08 14:58 108 2 gusting 3 17.2
2019-Dec-08 14:54 123 0 gusting 5 17.2
2019-Dec-08 14:48 114 2 gusting 5 17.2
2019-Dec-08 14:43 140 1 gusting 5 17.2
2019-Dec-08 14:39 150 0 gusting 5 16.7
2019-Dec-08 14:35 150 1 gusting 5 16.7
2019-Dec-08 14:28 141 0 gusting 2 16.7
2019-Dec-08 14:24 128 1 gusting 5 16.7
2019-Dec-08 14:20 128 1 gusting 5 16.7
2019-Dec-08 14:13 113 1 gusting 5 16.7
2019-Dec-08 14:09 109 2 gusting 6 16.1
2019-Dec-08 14:04 123 2 gusting 6 16.1
2019-Dec-08 14:00 121 3 gusting 6 16.7
2019-Dec-08 13:53 134 3 gusting 6 16.7
2019-Dec-08 13:49 117 2 gusting 5 16.7
2019-Dec-08 13:45 119 0 gusting 6 16.7
2019-Dec-08 13:38 150 3 gusting 6 16.7
2019-Dec-08 13:34 122 3 gusting 6 17.2
2019-Dec-08 13:29 101 1 gusting 5 17.2
2019-Dec-08 13:23 119 1 gusting 6 16.7
2019-Dec-08 13:19 111 2 gusting 6 16.7
2019-Dec-08 13:14 119 2 gusting 6 16.7
2019-Dec-08 13:08 126 3 gusting 6 16.1
2019-Dec-08 13:03 115 3 gusting 6 16.1
2019-Dec-08 12:59 116 3 gusting 6 16.1
2019-Dec-08 12:55 113 4 gusting 6 16.7
2019-Dec-08 12:48 131 3 gusting 6 16.7
2019-Dec-08 12:44 171 2 gusting 6 16.7
2019-Dec-08 12:40 115 2 gusting 6 16.7
2019-Dec-08 12:33 147 2 gusting 6 16.7
2019-Dec-08 12:29 096 2 gusting 6 16.7
2019-Dec-08 12:25 114 2 gusting 7 16.1
2019-Dec-08 12:18 104 4 gusting 7 16.1
2019-Dec-08 12:13 126 3 gusting 6 16.1
2019-Dec-08 12:09 107 5 gusting 7 16.1
2019-Dec-08 12:03 117 4 gusting 6 16.7